Pagosa Springs, CO

4:59 PM MST on January 17, 2017 (GMT -0700)
Pagosa Springs

Weather History for KPSO - January, 2013

Change the Weather History Date:

Thursday, January 10, 2013

  Actual Average (KE33) Record (KE33)
Temperature  
Mean Temperature 25 °F -  
Max Temperature 39 °F 35 °F 51 °F (2004)
Min Temperature 11 °F 17 °F 12 °F (1999)
Degree Days  
Heating Degree Days 40    
Moisture  
Dew Point 13 °F    
Average Humidity 60    
Maximum Humidity 98    
Minimum Humidity 26    
Precipitation  
Precipitation 0.00 in - - ()
Sea Level Pressure  
Sea Level Pressure 29.92 in    
Wind  
Wind Speed 1 mph (SSE)    
Max Wind Speed 8 mph    
Max Gust Speed 16 mph    
Visibility 8 miles    
Events Snow    
Averages and records for this station are not official NWS values.
T = Trace of Precipitation, MM = Missing Value Source: NWS Daily Summary

Daily Weather History Graph

Daily Weather History Graph

Search for Another Location

Airport or City:

Trip Planner

Search our weather history database for the weather conditions in past years. The results will help you decide how hot, cold, wet, or windy it might be!

Date:

Astronomy

Jan. 10, 2013 Rise Set
Actual Time 7:22 AM MST 5:09 PM MST
Civil Twilight 6:53 AM MST 5:38 PM MST
Nautical Twilight 6:21 AM MST 6:10 PM MST
Astronomical Twilight 5:49 AM MST 6:42 PM MST
Moon 6:05 AM MST (1/10) 4:20 PM MST (1/10)
Length of Visible Light 10h 44m
Length of Day
9h 47m
Waning Crescent, 2% of the Moon is Illuminated
Jan 10
Waning Crescent
Jan 11
New
Jan 18
First Quarter
Jan 26
Full
Feb 3
Last Quarter

Hourly Weather History & Observations

Time (MST) Temp. Windchill Dew Point Humidity Pressure Visibility Wind Dir Wind Speed Gust Speed Precip Events Conditions
2:15 AM 11.3 °F - 8.1 °F 87% 30.12 in 10.0 mi Calm Calm - N/A   Clear
2:35 AM 12.0 °F - 8.1 °F 84% 30.10 in 10.0 mi Calm Calm - N/A   Clear
3:35 AM 11.5 °F - 5.9 °F 78% 30.07 in 10.0 mi Calm Calm - N/A   Clear
3:55 AM 12.0 °F - 7.7 °F 83% 30.07 in 10.0 mi Calm Calm - N/A   Clear
4:35 AM 13.5 °F 7.5 °F 7.0 °F 75% 30.05 in 10.0 mi WNW 3.5 mph - N/A   Clear
4:55 AM 14.5 °F - 6.3 °F 70% 30.05 in 10.0 mi Calm Calm - N/A   Clear
5:15 AM 13.1 °F - 6.8 °F 76% 30.03 in 10.0 mi Calm Calm - N/A   Clear
5:35 AM 13.6 °F - 6.4 °F 73% 30.03 in 10.0 mi Calm Calm - N/A   Clear
5:55 AM 14.7 °F - 5.5 °F 67% 30.03 in 10.0 mi Calm Calm - N/A   Clear
6:15 AM 12.6 °F - 7.3 °F 80% 30.03 in 10.0 mi Calm Calm - N/A   Clear
6:35 AM 14.9 °F - 5.9 °F 68% 30.02 in 10.0 mi Calm Calm - N/A   Clear
6:55 AM 12.0 °F - 5.5 °F 75% 30.02 in 10.0 mi Calm Calm - N/A   Clear
7:35 AM 15.1 °F - 5.5 °F 66% 30.02 in 10.0 mi Calm Calm - N/A   Clear
7:55 AM 12.6 °F - 4.6 °F 71% 30.02 in 10.0 mi Calm Calm - N/A   Unknown
8:15 AM 15.6 °F - 6.3 °F 67% 30.02 in 10.0 mi Calm Calm - N/A   Unknown
8:55 AM 18.3 °F - 6.4 °F 60% 30.01 in 10.0 mi Calm Calm - N/A   Unknown
9:15 AM 21.9 °F - 7.3 °F 54% 30.02 in 10.0 mi Calm Calm - N/A   Unknown
9:35 AM 23.5 °F - 4.6 °F 44% 30.01 in 10.0 mi Calm Calm - N/A   Unknown
9:55 AM 23.9 °F - 6.6 °F 48% 30.01 in 10.0 mi Calm Calm - N/A   Unknown
10:15 AM 27.5 °F - 6.4 °F 41% 30.01 in 10.0 mi Calm Calm - N/A   Unknown
10:35 AM 27.9 °F - 7.0 °F 41% 30.00 in 10.0 mi Calm Calm - N/A   Unknown
10:55 AM 30.9 °F - 3.6 °F 31% 29.99 in 10.0 mi Calm Calm - N/A   Unknown
11:15 AM 32.5 °F 28.1 °F 1.2 °F 26% 29.97 in 10.0 mi NNE 4.6 mph - N/A   Unknown
11:35 AM 33.1 °F - 4.1 °F 29% 29.95 in 10.0 mi Calm Calm - N/A   Unknown
11:55 AM 34.9 °F - 6.1 °F 30% 29.95 in 10.0 mi Calm Calm - N/A   Unknown
12:15 PM 34.5 °F - 7.0 °F 32% 29.94 in 10.0 mi Calm Calm - N/A   Unknown
12:35 PM 35.8 °F - 5.5 °F 28% 29.92 in 10.0 mi Calm Calm - N/A   Unknown
12:55 PM 37.4 °F - 6.1 °F 27% 29.91 in 10.0 mi Calm Calm - N/A   Unknown
1:15 PM 39.0 °F 36.8 °F 7.2 °F 27% 29.90 in 10.0 mi SSW 3.5 mph - N/A   Unknown
1:35 PM 38.5 °F 34.1 °F 7.9 °F 28% 29.90 in 10.0 mi South 5.8 mph - N/A   Unknown
1:55 PM 39.0 °F 34.8 °F 10.2 °F 31% 29.89 in 10.0 mi South 5.8 mph - N/A   Unknown
2:15 PM 38.1 °F 35.7 °F 9.7 °F 31% 29.88 in 10.0 mi South 3.5 mph - N/A   Unknown
2:35 PM 38.7 °F - 8.4 °F 29% 29.88 in 10.0 mi Calm Calm - N/A   Unknown
2:55 PM 38.5 °F - 9.0 °F 30% 29.87 in 10.0 mi Calm Calm - N/A   Unknown
3:15 PM 38.3 °F - 10.4 °F 32% 29.87 in 10.0 mi Calm Calm - N/A   Unknown
3:35 PM 37.4 °F - 11.7 °F 35% 29.88 in 10.0 mi Calm Calm - N/A   Unknown
3:55 PM 36.9 °F - 12.4 °F 37% 29.88 in 10.0 mi Calm Calm - N/A   Unknown
4:15 PM 37.0 °F - 9.5 °F 32% 29.86 in 10.0 mi Calm Calm - N/A   Unknown
4:35 PM 37.2 °F 33.6 °F 10.4 °F 33% 29.86 in 10.0 mi South 4.6 mph - N/A   Unknown
4:55 PM 34.7 °F - 14.9 °F 44% 29.86 in 10.0 mi Calm Calm - N/A   Unknown
5:15 PM 35.4 °F - 11.7 °F 38% 29.85 in 10.0 mi Calm Calm - N/A   Unknown
5:35 PM 35.4 °F - 12.6 °F 39% 29.84 in 10.0 mi Calm Calm - N/A   Unknown
5:55 PM 34.7 °F 31.8 °F 14.4 °F 43% 29.85 in 10.0 mi WSW 3.5 mph - N/A   Unknown
6:15 PM 35.1 °F 30.1 °F 18.3 °F 51% 29.85 in 10.0 mi South 5.8 mph 16.1 mph N/A   Unknown
6:35 PM 33.6 °F - 23.2 °F 66% 29.84 in 5.0 mi Calm Calm - N/A Snow Light Snow
6:55 PM 32.4 °F - 24.4 °F 73% 29.84 in 7.0 mi Calm Calm - N/A   Unknown
7:15 PM 31.6 °F - 26.1 °F 80% 29.84 in 3.0 mi Calm Calm - N/A Snow Light Snow
7:35 PM 31.1 °F 25.4 °F 26.4 °F 83% 29.83 in 4.0 mi NNE 5.8 mph - N/A Snow Light Snow
7:55 PM 30.2 °F 22.6 °F 28.0 °F 92% 29.82 in 3.0 mi NE 8.1 mph - N/A Snow Light Snow
8:15 PM 30.0 °F 26.5 °F 28.0 °F 92% 29.82 in 7.0 mi NE 3.5 mph - N/A Snow Light Snow
8:35 PM 30.2 °F - 28.4 °F 93% 29.82 in 1.8 mi Calm Calm - N/A Snow Light Snow
8:55 PM 30.0 °F - 29.1 °F 96% 29.81 in 1.0 mi Calm Calm - N/A Snow Snow
9:15 PM 30.0 °F - 29.3 °F 97% 29.80 in 1.0 mi Calm Calm - N/A Snow Snow
9:35 PM 30.0 °F 24.1 °F 29.3 °F 97% 29.78 in 1.2 mi SSE 5.8 mph - N/A Snow Snow
10:15 PM 29.7 °F 26.1 °F 28.9 °F 97% 29.75 in 4.0 mi SE 3.5 mph - N/A Snow Light Snow
10:55 PM 28.9 °F - 28.4 °F 98% 29.72 in 10.0 mi Calm Calm - N/A   Unknown
11:15 PM 28.6 °F - 28.0 °F 98% 29.72 in 10.0 mi Calm Calm - N/A   Unknown
11:35 PM 28.9 °F - 28.4 °F 98% 29.71 in 2.0 mi Calm Calm - N/A Snow Light Snow
11:55 PM 30.0 °F - 27.7 °F 91% 29.71 in 3.0 mi Calm Calm - N/A Snow Light Snow